Location: Caltech
(34.1382°N, 118.1253°W)
Time: 18:34:26
(UTC-07:00)

Meteor 2-4 Rocket - Visible Passes

Search period start: 22 April 2018 00:00
Search period end: 02 May 2018 00:00
Orbit: 798 x 909 km, 81.2° (Epoch: 22 April)

Date Brightness Start Highest point End Pass type
(mag) Time Alt. Az. Time Alt. Az. Time Alt. Az.
22 Apr 6.3 01:21:42 13° NE 01:21:42 13° NE 01:22:21 10° NNE visible
22 Apr 5.8 03:03:46 16° NNW 03:03:46 16° NNW 03:05:03 10° NNW visible
23 Apr 6.4 01:10:44 12° NE 01:10:44 12° NE 01:11:13 10° NNE visible
23 Apr 5.8 02:52:49 16° NNW 02:52:49 16° NNW 02:54:07 10° NNW visible
24 Apr 6.4 00:59:46 11° NE 00:59:46 11° NE 01:00:04 10° NE visible
24 Apr 5.9 02:41:50 16° NNW 02:41:50 16° NNW 02:43:09 10° NNW visible
25 Apr 6.4 00:48:47 10° NE 00:48:47 10° NE 00:48:54 10° NE visible
25 Apr 5.9 02:30:51 16° NNW 02:30:51 16° NNW 02:32:10 10° NNW visible
26 Apr 5.9 02:19:51 17° NNW 02:19:51 17° NNW 02:21:12 10° NNW visible
27 Apr 5.9 02:08:50 17° NNW 02:08:50 17° NNW 02:10:12 10° N visible
28 Apr 5.9 01:57:48 18° NNW 01:57:48 18° NNW 01:59:13 10° N visible
29 Apr 5.9 01:46:46 18° NNW 01:46:46 18° NNW 01:48:13 10° N visible
30 Apr 5.9 01:35:42 19° NNW 01:35:42 19° NNW 01:37:13 10° N visible
01 May 5.9 01:24:38 19° N 01:24:38 19° N 01:26:12 10° N visible
